CAPE
0 0 0 0 0 0 0 0 0 0 0 0 0 0 0 0 0 0 0 0 0 0 0 0 0 0 0 0 0 0 0 0 0 0 0 0 0 0 0 0 0 0 0 0
0 0 0 0 0 0 0 0 17 4 0 0 0 0 0 0 0 0 0 0 0 0 0 0 0 0 0 0 0 0 0 0 0 0 0 0 0 0 0 0 0 0 0 0
0 0 0 0 0 0 0 0 5 13 0 0 0 0 0 0 0 0 0 0 0 0 0 0 0 0 0 0 0 0 0 0 0 0 0 0 0 0 0 0 0 0 0 0
0 0 0 0 0 0 0 0 0 0 0 0 0 0 0 0 0 0 0 0 0 0 0 0 0 0 0 0 0 0 0 0 0 0 0 0 0 0 0 0 0 0 0 0
0 0 0 0 0 0 0 0 0 0 0 0 0 0 0 0 0 0 0 0 0 0 0 0 0 0 0 0 0 0 0 0 0 0 0 0 0 0 0 0 0 0 0 0
0 0 0 0 0 0 6 0 0 0 0 0 0 0 0 0 0 0 0 0 0 0 0 0 0 0 0 0 0 0 0 0 0 0 0 0 0 0 0 0 0 0 0 0
0 0 0 0 0 0 0 17 0 0 0 0 0 0 0 0 0 0 0 0 0 0 0 0 0 0 0 0 0 0 0 0 0 0 0 0 0 0 0 0 0 0 0 0
0 0 0 0 0 0 58 16 0 0 0 0 0 0 0 0 0 0 0 0 0 0 0 0 0 0 0 0 0 0 0 0 0 0 0 0 0 0 0 0 0 0 0 0
0 0 0 0 0 0 1 23 0 0 0 0 0 0 0 0 0 0 0 0 0 0 0 0 0 0 0 0 0 0 0 0 0 0 0 0 0 0 0 0 0 0 0 0
0 0 0 0 0 0 0 57 0 1 0 0 0 0 0 0 0 0 0 0 0 0 0 0 0 0 0 0 0 0 0 0 0 0 0 0 0 0 0 0 0 0 0 0
0 0 0 0 0 0 31 73 14 14 0 0 0 0 0 0 0 0 0 0 0 0 0 0 0 0 0 0 0 0 0 0 0 0 0 0 0 0 0 0 0 0 0 0
0 0 0 0 0 0 42 66 2 0 1 0 0 0 0 0 0 0 0 0 0 0 0 0 0 0 0 0 0 0 0 0 0 0 0 0 0 0 0 0 0 0 0 0
0 0 0 0 0 0 7 28 0 0 0 1 0 0 0 0 0 0 0 0 0 0 0 0 0 0 0 0 0 0 0 0 0 0 0 0 0 0 0 0 0 0 0 0
0 0 0 0 0 1 10 20 0 0 0 17 2 0 0 0 0 0 0 0 0 0 0 0 0 0 0 0 0 0 0 0 0 0 0 0 0 0 0 0 0 0 0 0
0 0 10 17 19 37 0 0 0 0 4 7 1 0 0 0 0 0 0 0 0 0 0 0 0 0 0 0 0 0 0 0 0 0 0 0 0 0 0 0 0 0 0 0
0 5 32 38 26 1 1 7 0 0 0 16 30 0 0 0 0 0 0 0 0 0 0 0 0 0 0 0 0 0 0 0 0 0 0 0 0 0 0 0 0 0 0 0
0 0 0 0 0 0 0 1 0 0 0 0 2 2 0 0 0 0 0 0 0 0 0 0 0 0 0 0 0 0 0 0 0 0 0 0 0 0 0 0 0 0 0 0
0 0 0 0 0 0 12 0 0 0 0 0 0 0 0 0 0 0 0 0 0 0 0 0 0 0 0 0 0 0 0 0 0 0 0 0 0 0 0 0 0 0 0 0
0 0 0 0 0 0 0 0 0 0 0 0 0 0 0 1 0 0 0 0 0 0 0 0 0 0 0 0 0 0 0 0 0 0 0 0 0 0 0 0 0 0 0 0
0 0 0 0 0 0 0 0 0 0 0 0 0 0 0 0 0 0 0 0 0 0 0 0 0 0 0 0 0 3 0 0 0 0 0 0 0 0 0 1 1 1 0 0
0 0 0 0 0 0 0 0 0 0 0 0 0 0 0 0 0 0 0 0 0 0 0 0 0 0 0 2 3 3 3 1 1 0 2 2 1 0 0 0 0 0 0 0
0 0 0 0 0 0 0 0 0 0 0 0 0 0 0 0 0 0 0 0 0 0 0 0 1 0 1 1 2 2 1 1 1 0 0 0 0 0 0 0 0 0 0 0
0 0 0 0 0 0 0 0 0 0 0 0 0 0 0 0 0 0 0 0 0 0 0 1 0 2 0 0 1 1 0 0 0 0 0 0 0 0 0 0 0 0 0 0
0 0 0 0 0 0 0 0 0 0 0 0 0 0 0 0 0 0 0 0 0 0 0 0 1 0 0 0 1 0 0 0 0 0 0 0 0 0 0 0 0 0 0 0
0 0 0 0 2 1 1 1 0 1 0 0 0 0 0 0 0 0 0 0 0 0 0 0 0 0 0 0 0 0 0 0 0 0 0 0 0 0 0 0 0 0 0 0
0 0 1 0 0 1 1 0 0 1 0 0 0 0 0 0 0 0 0 0 0 0 1 0 0 0 0 0 0 0 0 0 0 0 0 0 0 0 0 0 0 0 0 0
0 0 0 0 0 0 0 0 0 0 0 0 0 0 0 0 0 0 0 0 0 0 0 0 0 0 0 0 0 0 0 0 0 0 0 0 0 0 0 0 0 0 0 0
CIN
0 0 0 0 0 0 0 0 0 0 0 0 0 0 0 -2 -3 0 0 0 0 0 0 0 0 0 0 0 0 0 0 0 0 0 0 0 0 0 0 0 0 0 0 0
0 0 0 0 0 0 0 0 -62 -62 0 0 0 0 0 0 0 0 0 0 0 0 0 0 0 0 0 0 0 0 0 0 0 0 0 0 0 0 0 0 0 0 0 0
0 0 0 0 0 0 0 -1 -11 -38 0 0 0 0 0 0 0 0 0 0 0 0 0 0 0 0 0 0 0 0 0 0 0 0 0 0 0 0 0 0 0 0 0 0
0 0 0 0 0 0 0 0 0 0 0 0 0 0 0 0 0 0 0 0 0 0 0 0 0 0 0 0 0 0 0 0 0 0 0 0 0 0 0 0 0 0 0 0
0 0 0 0 0 0 0 0 0 0 0 0 0 0 0 0 0 0 0 0 0 0 0 0 0 0 0 0 0 0 0 0 0 0 0 0 0 0 0 0 0 0 0 0
0 0 0 0 0 0 -85 0 0 0 0 0 0 0 0 0 0 0 0 0 0 0 0 0 0 0 0 0 0 0 0 0 0 0 0 0 0 0 0 0 0 0 0 0
0 0 0 0 0 0 0 -86 0 0 0 0 0 0 0 0 0 0 0 0 0 0 0 0 0 0 0 0 0 0 0 0 0 0 0 0 0 0 0 0 0 0 0 0
0 0 0 0 0 0 -152 -150 0 0 0 0 0 0 0 0 0 0 0 0 0 0 0 0 0 0 0 0 0 0 0 0 0 0 0 0 0 0 0 0 0 0 0 0
0 0 0 0 0 0 -15 -169 0 0 0 0 0 0 0 0 0 0 0 0 0 0 0 0 0 0 0 0 0 0 0 0 0 0 0 0 0 0 0 0 0 0 0 0
0 0 0 0 0 0 0 -140 0 -13 0 0 0 0 0 0 0 0 0 0 0 0 0 0 0 0 0 0 0 0 0 0 0 0 0 0 0 0 0 0 0 0 0 0
0 0 0 0 0 0 -151 -205 -282 -71 0 0 0 0 0 0 0 0 0 0 0 0 0 0 0 0 0 0 0 0 0 0 0 0 0 0 0 0 0 0 0 0 0 0
0 0 0 0 0 0 -199 -83 -35 0 -26 0 0 0 0 0 0 0 0 0 0 0 0 0 0 0 0 0 0 0 0 0 0 0 0 0 0 0 0 0 0 0 0 0
0 0 0 0 0 0 -140 -104 0 0 0 -22 0 0 0 0 0 0 0 0 0 0 0 0 0 0 0 0 0 0 0 0 0 0 0 0 0 0 0 0 0 0 0 0
0 0 0 0 0 -85 -102 -127 0 0 0 -74 -77 0 0 0 0 0 0 0 0 0 0 0 0 0 0 0 0 0 0 0 0 0 0 0 0 0 0 0 0 0 0 0
0 0 -295 -277 -265 -251 -6 0 0 0 -13 -95 -60 0 0 0 0 0 0 0 0 0 0 0 0 0 0 0 0 0 0 0 0 0 0 0 0 0 0 0 0 0 0 0
0 -369 -287 -283 -279 -125 -123 -69 0 0 0 -130 -83 0 0 0 0 0 0 0 0 0 0 0 0 0 0 0 0 0 0 0 0 0 0 0 0 0 0 0 0 0 0 0
0 0 0 0 0 0 0 -33 0 0 0 0 -21 -30 0 0 0 0 0 0 0 0 0 0 0 0 0 0 0 0 0 0 0 0 0 0 0 0 0 0 0 0 0 0
0 0 0 0 0 0 -280 0 0 0 0 0 0 0 0 0 0 0 0 0 0 0 0 0 0 0 0 0 0 0 0 0 0 0 0 0 0 0 0 0 0 0 0 0
0 0 0 0 0 0 0 0 0 0 0 0 0 0 0 0 0 0 0 0 0 0 0 0 0 0 0 0 0 0 0 0 0 0 0 0 0 0 0 0 0 0 0 0
0 0 0 0 0 0 0 0 0 0 0 0 0 0 0 0 0 0 0 0 0 0 0 0 0 0 0 0 0 0 0 0 0 0 0 0 0 0 0 0 0 0 0 0
0 0 0 0 0 0 0 0 0 0 0 0 0 0 0 0 0 0 0 0 0 0 0 0 0 0 0 0 0 0 0 0 0 0 0 0 0 0 0 0 0 0 0 0
0 0 0 0 0 0 0 0 0 0 0 0 0 0 0 0 0 0 0 0 0 0 0 0 0 0 0 0 0 0 0 0 0 0 0 0 0 0 0 0 0 0 0 0
0 0 0 0 0 0 0 0 0 0 0 0 0 0 0 0 0 0 0 0 0 0 0 0 0 0 0 0 0 0 0 0 0 0 0 0 0 0 0 0 0 0 0 0
0 0 0 0 0 0 0 0 0 0 0 0 0 0 0 0 0 0 -6 0 0 0 0 0 0 0 0 0 0 0 0 0 0 0 0 0 0 0 0 0 0 0 0 0
0 0 0 0 0 0 0 0 0 0 0 0 0 0 0 0 0 0 0 0 0 0 0 0 0 0 0 0 0 0 0 0 0 0 0 0 0 0 0 0 0 0 0 0
0 0 0 0 0 0 0 0 0 0 0 0 0 0 0 0 0 0 0 0 0 0 0 0 0 0 0 0 0 0 0 0 0 0 0 0 0 0 0 0 0 0 0 0
0 0 0 0 0 0 0 0 0 0 0 0 0 0 0 0 0 0 0 0 0 0 0 0 0 0 0 0 0 0 0 0 0 0 0 0 0 0 0 0 0 0 0 0
Wind_Speed
49 45 42 37 31 26 23 21 17 23 24 24 26 30 26 20 20 19 20 15 12 11 12 15 16 17 18 16 16 20 19 17 19 19 17 19 16 12 10 10 8 13 13 14
48 45 41 37 33 29 26 21 20 23 27 31 30 27 25 21 20 18 15 14 14 13 11 16 16 16 16 15 17 17 17 19 20 21 20 18 15 11 11 11 13 7 10 14
47 44 41 39 38 40 29 25 22 27 28 28 31 29 27 23 20 19 13 10 11 10 14 16 15 15 17 16 16 15 17 19 22 27 18 13 10 5 5 9 9 9 6 14
45 43 41 41 39 43 29 27 27 30 38 35 31 29 26 25 22 18 15 13 12 10 14 16 16 15 15 16 16 17 19 24 20 18 17 14 12 6 1 3 10 9 16 14
43 42 41 39 38 35 33 29 29 28 26 32 31 31 29 27 23 20 16 12 10 12 14 16 15 13 18 19 17 17 18 19 15 10 14 15 11 7 6 7 11 11 15 13
43 41 40 39 35 36 33 27 24 29 32 31 36 36 30 25 21 19 17 13 12 12 13 13 13 13 12 12 13 12 14 11 12 16 17 17 13 7 8 12 14 14 15 19
41 39 41 37 37 39 29 27 27 28 34 33 40 33 31 27 25 20 17 15 14 11 14 12 11 11 11 11 14 14 11 13 16 18 16 19 16 17 17 12 15 14 19 22
39 39 38 37 39 44 28 27 29 29 30 33 31 34 29 21 19 19 18 18 15 12 11 13 14 17 17 17 17 17 15 13 18 19 20 26 22 18 17 19 24 17 19 21
36 37 37 39 40 40 26 26 22 25 29 36 29 29 30 27 23 19 17 13 2 13 15 16 17 18 16 17 16 16 15 15 17 19 24 26 21 19 17 20 30 26 18 18
33 33 35 38 39 36 26 23 21 23 27 23 26 32 29 23 21 19 16 10 16 15 17 19 20 20 17 19 18 17 18 19 17 19 23 25 19 21 17 26 30 22 17 15
27 31 34 37 33 31 27 22 19 23 24 23 23 23 24 22 21 20 15 15 19 18 19 19 19 20 15 18 17 17 17 18 20 20 24 31 16 16 21 22 22 22 16 18
23 26 30 30 25 29 28 24 17 16 19 20 17 14 15 19 18 17 14 17 14 12 16 18 17 20 18 19 23 17 20 16 21 17 22 20 18 21 20 23 25 24 22 23
20 23 23 21 23 27 28 22 19 15 15 14 16 18 15 13 14 13 16 17 12 13 14 14 17 23 17 22 22 20 18 17 22 24 23 23 22 21 23 24 24 25 25 26
17 17 16 18 21 25 23 17 19 16 15 18 18 16 16 19 16 14 14 8 10 10 14 17 19 22 16 22 22 21 21 18 23 26 28 27 24 23 24 26 25 25 25 24
11 13 14 17 19 24 16 12 15 17 16 18 16 13 14 14 11 8 7 5 10 14 17 19 20 18 18 22 21 23 19 23 26 31 27 27 28 28 28 28 28 27 26 26
9 10 12 13 15 16 18 16 14 12 12 11 16 15 14 13 10 8 11 13 15 16 17 19 18 18 20 22 24 22 19 20 21 27 27 27 29 30 28 28 29 28 26 24
6 11 11 12 16 17 18 15 15 14 12 13 13 15 15 15 14 15 16 17 17 18 19 20 20 20 18 22 27 27 29 29 29 28 28 29 27 29 30 27 26 24 23 21
7 7 8 7 5 4 10 10 12 12 9 13 14 16 15 16 16 17 18 18 18 20 19 20 21 19 21 26 26 31 32 32 23 30 28 26 26 27 26 24 22 23 22 21
10 13 11 11 12 13 13 15 13 10 12 15 16 15 17 15 15 16 17 18 21 20 21 22 21 22 25 27 31 33 33 30 31 30 26 24 25 24 24 22 22 21 20 22
11 12 13 14 14 16 16 15 16 15 17 15 15 13 15 15 16 18 19 20 20 24 22 20 22 24 20 27 28 28 30 30 25 23 25 24 24 23 23 22 22 21 21 21
15 15 15 14 16 14 15 16 16 18 18 18 16 16 17 19 19 20 20 21 22 26 24 22 24 24 24 25 24 25 24 24 24 21 20 20 20 20 21 21 21 22 23 24
13 9 9 12 14 14 16 18 17 18 18 18 18 19 18 18 18 20 21 24 22 26 20 22 25 22 21 20 21 21 22 22 22 21 20 20 20 20 21 22 23 23 23 24
12 13 15 17 19 19 20 20 20 21 19 18 17 19 18 17 17 19 19 21 23 19 23 24 22 17 17 17 17 19 19 20 20 20 21 22 23 24 25 26 26 26 26 25
13 16 17 20 20 20 22 21 20 18 17 15 15 16 17 18 18 18 21 20 19 23 24 24 18 15 15 14 16 18 19 20 22 23 24 25 26 26 25 25 26 27 27 27
14 17 21 22 19 18 17 15 15 16 14 14 15 18 19 19 19 18 18 20 22 22 24 20 15 14 13 14 15 17 19 21 23 24 25 26 26 26 26 27 27 28 29 31
16 16 17 16 15 17 17 16 16 17 16 16 16 17 19 20 19 20 20 22 25 23 19 15 13 13 13 14 16 19 21 22 23 23 23 24 24 25 26 28 30 32 33 35
15 16 14 14 14 14 15 15 16 15 15 16 17 19 19 18 21 22 21 24 22 18 14 13 12 12 12 14 16 19 20 20 21 21 23 23 24 25 29 32 34 36 36 37
Wind_Direction
213 213 213 215 215 212 207 219 221 222 216 220 225 222 224 237 236 235 236 258 285 294 289 282 276 274 276 287 288 265 267 272 266 268 275 269 279 312 339 351 30 355 358 358
210 209 210 210 210 203 207 212 224 223 219 219 219 223 225 234 237 238 253 271 288 302 302 278 279 274 282 285 271 267 264 264 257 259 268 282 296 318 331 341 341 23 10 359
207 207 208 208 208 206 212 214 219 220 223 225 220 220 223 229 236 241 269 297 306 314 295 285 276 274 277 283 279 279 268 262 258 209 278 304 315 335 348 341 357 356 345 338
204 206 206 206 207 205 214 221 222 217 215 218 219 222 227 228 233 246 266 291 309 313 291 276 272 278 282 279 276 272 266 256 273 284 292 308 324 343 345 315 329 330 333 333
202 204 205 206 206 203 216 219 219 218 221 218 219 221 224 226 234 244 264 295 319 304 293 279 279 291 276 270 270 274 279 279 296 310 311 313 323 329 320 304 316 304 317 306
201 203 205 205 205 203 215 224 223 217 220 219 219 221 224 228 239 251 262 285 302 309 303 308 316 305 306 293 289 298 304 311 312 308 312 313 314 272 275 308 313 313 309 320
200 203 204 206 206 208 220 223 219 219 220 222 219 223 226 230 238 248 259 277 288 298 69 36 1 351 342 326 311 313 324 318 313 310 316 305 320 323 323 308 312 302 314 319
201 203 205 208 207 207 224 223 222 224 223 224 225 223 225 231 244 252 261 269 281 92 304 310 306 297 301 306 314 315 321 323 316 312 309 311 317 323 321 317 317 315 308 314
200 204 207 208 208 208 223 223 228 228 225 226 228 225 227 230 238 249 263 284 15 295 290 295 296 298 311 315 322 329 329 330 319 319 313 314 328 334 333 331 316 324 320 319
202 206 208 207 207 207 221 224 231 231 230 237 229 227 227 237 242 251 264 268 279 295 290 288 296 298 316 310 317 323 325 323 321 319 317 320 329 333 340 321 324 338 338 334
204 206 207 206 206 203 220 223 236 235 234 234 236 235 232 239 244 250 260 268 277 285 290 297 302 304 318 319 325 328 326 327 324 326 322 319 346 346 330 334 334 332 330 328
203 206 206 205 197 201 218 222 239 243 237 236 240 244 254 255 256 256 257 274 290 302 302 304 314 308 317 317 314 328 320 324 325 321 324 332 331 329 330 329 327 328 323 324
202 204 204 194 169 201 216 223 232 239 233 235 238 244 260 275 274 277 270 277 298 302 315 316 314 307 320 313 315 320 325 326 320 321 326 324 324 323 322 321 318 319 319 320
199 198 189 172 176 205 212 226 230 245 242 241 244 262 264 277 280 284 292 300 308 322 316 311 310 309 318 315 320 320 326 328 321 318 320 323 329 329 328 327 327 325 325 324
185 181 163 160 180 196 204 232 246 248 249 244 242 260 282 289 290 303 318 327 311 308 308 309 309 319 320 320 320 318 322 319 316 317 324 324 325 328 329 328 328 327 326 326
171 160 159 163 177 200 219 235 250 263 258 260 248 267 274 289 302 311 311 314 312 311 312 311 317 322 317 316 315 326 326 324 321 320 327 325 324 326 329 328 328 329 329 330
162 180 184 196 206 215 229 241 244 258 270 272 266 266 276 286 292 296 301 310 311 311 312 311 313 317 317 316 313 326 327 325 322 324 324 323 330 329 331 334 337 342 344 347
163 158 137 126 132 193 247 272 272 273 283 281 272 278 278 292 289 291 304 304 309 313 312 316 314 318 317 312 320 321 323 323 332 330 331 330 333 335 338 344 348 349 350 352
206 208 212 230 241 245 250 264 278 308 289 276 281 275 278 300 298 304 308 310 304 312 307 310 315 313 310 317 318 320 323 325 322 328 335 339 340 343 346 350 352 353 355 355
235 239 242 244 250 247 256 271 271 280 285 291 285 293 289 301 302 303 307 310 308 305 310 318 310 312 322 326 327 328 330 332 336 334 335 341 344 349 352 354 357 357 354 352
246 249 253 251 260 273 276 274 276 278 278 286 287 289 293 301 299 301 307 308 310 304 307 310 310 311 321 331 336 339 344 348 352 356 355 357 358 357 356 354 352 349 346 344
252 256 267 275 282 285 280 277 282 287 284 290 291 295 301 304 310 303 305 303 307 305 318 312 309 319 330 338 343 348 352 356 0 4 6 5 4 360 355 350 347 347 346 344
275 278 275 277 279 273 272 272 279 282 290 296 299 298 305 312 314 310 310 305 303 319 310 311 319 329 336 341 349 354 358 0 3 3 0 357 353 350 348 347 348 348 348 350
281 278 270 274 276 280 280 283 290 298 301 304 306 305 306 309 309 310 305 310 314 307 308 313 323 329 336 343 347 350 352 353 352 352 351 350 349 350 352 352 351 350 349 348
290 287 271 273 284 291 300 309 305 307 310 309 308 308 307 308 309 313 312 312 309 313 314 323 329 333 339 342 344 345 345 344 344 345 346 347 350 351 352 353 352 350 346 343
291 293 288 291 292 293 299 305 306 309 309 313 313 310 306 303 308 307 306 309 308 317 324 331 337 336 339 342 342 341 341 341 344 348 350 351 351 351 350 349 348 344 341 338
299 297 310 308 309 310 314 317 317 322 315 309 314 307 305 318 310 307 312 310 316 323 329 335 342 342 342 341 342 341 345 349 350 351 351 351 351 349 345 341 341 340 340 339